カタログに戻る

STARLINK-34343

運用中通信SSO
NORAD 64157·PAYLOAD·🇺🇸 United States

打ち上げ May 27, 2025 から Vandenberg Space Force Base

Loading…

次のパス (今後24時間)

TLE

最新Source: CelesTrak SupGP

元期: Sep 15, 2026, 02:49 UTC

1 64157C 25112M   26258.11784722  .00048964  00000+0  32046-2 0  2584
2 64157  97.6010 308.1628 0013760 331.7145  88.7442 15.07741399    17

AllMySatでSTARLINK-34343をリアルタイム追跡

Download on the App Store